[Iaude] MPEC L36: 2024 LK [a=1.58,e=0.21,i=22.9,H=20.6]

mpec at cfa.harvard.edu mpec at cfa.harvard.edu
Mon Jun 3 19:17:37 EDT 2024


M.P.E.C. 2024-L36                                  Issued 2024 June 3, 23:16 UT

     The Minor Planet Electronic Circulars contain information on unusual
         minor planets, routine data on comets and natural satellites,
         and occasional editorial announcements.  They are published
    on behalf of Division F of the International Astronomical Union by the
          Minor Planet Center, Smithsonian Astrophysical Observatory,
                          Cambridge, MA 02138, U.S.A.
			  
             Prepared using the Tamkin Foundation Computer Network

                              MPC at CFA.HARVARD.EDU
            URL https://www.minorplanetcenter.net/    ISSN 1523-6714

                                    2024 LK                                     


Observations:
     K24L00K  C2024 04 03.41558 16 29 47.01 +19 06 46.5                VEL036V00
     K24L00K  C2024 04 03.42057 16 29 47.08 +19 06 52.6          22.5 GVEL036V00
     K24L00K  C2024 04 03.42557 16 29 47.16 +19 06 57.7          23.6 GVEL036V00
     K24L00K  C2024 05 06.41515516 15 07.017+28 18 57.95         21.97GVEL036F52
     K24L00K  C2024 05 06.42492916 15 06.297+28 19 04.52         22.33GVEL036F52
     K24L00K  C2024 05 06.43471516 15 05.589+28 19 11.08         22.44GVEL036F52
     K24L00K  C2024 05 06.44448916 15 04.815+28 19 17.17         22.78GVEL036F52
     K24L00K  C2024 05 29.33606915 43 21.208+29 36 26.34         22.22GVEL036F52
     K24L00K  C2024 05 29.34854015 43 20.091+29 36 22.74         22.02GVEL036F52
     K24L00K  C2024 05 29.36102115 43 18.956+29 36 19.09         21.90GVEL036F52
     K24L00K  C2024 05 29.37359315 43 17.796+29 36 15.19         22.34GVEL036F52
     K24L00K* C2024 06 01.27960015 39 10.368+29 18 09.06         22.72wXEL036F52
     K24L00K  C2024 06 01.29198115 39 09.270+29 18 03.77         22.18wXEL036F52
     K24L00K  C2024 06 01.30435915 39 08.184+29 17 58.68         22.45wXEL036F52
     K24L00K  C2024 06 01.31676215 39 07.098+29 17 53.26         22.36wXEL036F52
     K24L00K  C2024 06 01.49855615 38 51.088+29 16 32.04         22.24GVEL036F52
     K24L00K KC2024 06 02.15160715 37 57.594+29 11 27.17         23.02GVEL036V06
     K24L00K KC2024 06 02.15558115 37 57.292+29 11 25.01         21.89GVEL036V06
     K24L00K KC2024 06 02.15961215 37 56.953+29 11 23.35         22.24GVEL036V06
     K24L00K KC2024 06 02.16358715 37 56.568+29 11 21.34         22.92GVEL036V06
     K24L00K 3C2024 06 02.45649815 37 31.660+29 09 01.66         22.36GVEL036T14
     K24L00K 3C2024 06 02.45770815 37 31.556+29 09 01.04         22.49GVEL036T14
     K24L00K 3C2024 06 02.45892015 37 31.454+29 09 00.43         22.45GVEL036T14
     K24L00K KC2024 06 03.13815115 36 36.26 +29 03 12.6          22.4 GVEL036H21
     K24L00K KC2024 06 03.13969215 36 36.14 +29 03 11.7          22.8 GVEL036H21
     K24L00K KC2024 06 03.14258115 36 35.91 +29 03 10.0          22.9 GVEL036H21

Observer details:
F52 Pan-STARRS 2, Haleakala.  Observers J. Herman, T. Lowe, P. Minguez, A.
    Schultz, I. Smith.  Measurers K. Chambers, T. de Boer, J. Fairlamb, H.
    Gao, M. Huber, C.-C. Lin, E. Magnier, Y. Ramanjooloo, R. Wainscoat, R.
    Weryk.  1.8-m Ritchey-Chretien + CCD.
H21 Astronomical Research Observatory, Westfield.  Observer R. Holmes.
    Measurers T. Linder, R. Holmes, L. Horn.  1.3-m f/4.0 astrograph + CCD.
T14 Canada-France-Hawaii Telescope, Maunakea.  Observers R. Wainscoat, L.
    Wells, T. Burdullis.  Measurers R. Weryk, R. Wainscoat.  3.6-m f/4.1
    reflector + CCD.
V00 Kitt Peak-Bok.  Observers V. F. Carvajal, K. W. Wierzchos.  Measurers B.
    Gray, D. Rankin, F. C. Shelly.  2.25-m reflector + mosaic CCD.
V06 Catalina Sky Survey-Kuiper.  Observer K. W. Wierzchos.  Measurers T.
    Beuden, V. F. Carvajal, D. Fay, J. B. Fazekas, D. C. Fuls, A. R. Gibbs, A.
    D. Grauer, H. Groeller, J. K. Hogan, R. A. Kowalski, S. M. Larson, G. J.
    Leonard, D. Rankin, R. L. Seaman, F. C. Shelly, K. W. Wierzchos.  1.55-m
    reflector + 1K CCD.

Orbital elements:
2024 LK                                                  Earth MOID = 0.2758 AU
Epoch 2024 Mar. 31.0 TT = JDT 2460400.5                 MPC                     
M 234.82148              (2000.0)            P               Q                  
n   0.49806585     Peri.  223.58224     +0.95886507     +0.01478086             
a   1.5762008      Node   133.18830     +0.02087399     +0.99226814             
e   0.2133834      Incl.   22.87984     -0.28309373     +0.12322929             
P   1.98           H   20.60          G   0.15           U   4                  
Residuals in seconds of arc
240403 V00  0.1-  0.0     240529 F52  0.0   0.1+    240602 V06  0.4+  0.2+
240403 V00  0.0   0.3+    240529 F52  0.1-  0.0     240602 V06  0.2-  0.0
240403 V00  0.1+  0.3-    240601 F52  0.1+  0.0     240602 T14  0.0   0.0
240506 F52  0.2+  0.1+    240601 F52  0.1-  0.0     240602 T14  0.0   0.0
240506 F52  0.1+  0.1+    240601 F52  0.1-  0.1+    240602 T14  0.0   0.0
240506 F52  0.2+  0.0     240601 F52  0.1-  0.0     240603 H21  0.1-  0.1+
240506 F52  0.7-  0.5-    240601 F52  0.0   0.2+    240603 H21  0.0   0.0
240529 F52  0.2-  0.0     240602 V06  0.3-  0.3+    240603 H21  0.3+  0.2-
240529 F52  0.0   0.0     240602 V06  0.2+  0.0

Ephemeris:
2024 LK                  a,e,i = 1.58, 0.21, 23                  q = 1.2399
Date    TT    R. A. (2000) Decl.     Delta      r    Elong.  Phase     V
2024 05 04    16 17 46.3 +27 50 31   0.9038  1.7390   130.8    26.0    22.8
...
2024 05 19    15 58 28.9 +29 48 21   0.8635  1.7028   130.3    26.9    22.6
...
2024 05 27    15 46 44.8 +29 46 14   0.8533  1.6823   128.5    28.1    22.6
...
2024 06 02    15 38 09.8 +29 12 41   0.8505  1.6665   126.5    29.3    22.6
2024 06 03    15 36 47.4 +29 04 27   0.8504  1.6639   126.1    29.5    22.6
2024 06 04    15 35 26.3 +28 55 28   0.8504  1.6612   125.7    29.7    22.6
...
2024 06 10    15 27 53.7 +27 46 33   0.8526  1.6449   123.2    31.1    22.7
...
2024 06 18    15 19 47.3 +25 38 05   0.8608  1.6227   119.4    33.0    22.7
...
2024 07 03    15 11 56.4 +20 10 06   0.8895  1.5797   111.8    36.7    22.8

A. U. Tomatic                (C) Copyright 2024 MPC           M.P.E.C. 2024-L36





More information about the Iaude mailing list